Hourly Data Report for May 23, 2021

OTTAWA INTL A
ONTARIO
Current Station Operator: NAVCAN

45°19'00.000" N
75°40'00.000" W
114.90 m
6106001
71628
YOW

Download Data

Hourly Data (May 2021)
Hourly Data Report for May 23, 2021
TIME
LST
Temp Definition
°C
Dew Point Definition
°C
Rel Hum Definition
%
Precip. Amount Definition
mm

Wind Dir Definition
10's deg

Wind Spd Definition
km/h
Visibility Definition
km
Stn Press Definition
kPa
Hmdx Definition


Wind Chill Definition


Weather Definition


00:00 18.7 16.5 87   25 15 24.1 100.08     LegendNANA
01:00 18.0 16.3 90   25 14 24.1 100.04     Clear
02:00 17.5 16.3 93   21 10 24.1 99.96     LegendNANA
03:00 17.2 16.2 94   24 13 24.1 99.91     LegendNANA
04:00 16.7 15.9 95   21 8 24.1 99.87     Mainly Clear
05:00 16.8 16.1 96   25 10 24.1 99.89     LegendNANA
06:00 18.3 16.9 91   25 12 24.1 99.86     LegendNANA
07:00 18.8 17.2 90   28 27 24.1 99.91     Rain
08:00 16.5 12.5 77   34 35 24.1 100.11     LegendNANA
09:00 15.3 9.7 69   33 39 24.1 100.24     LegendNANA
10:00 15.4 8.4 63   33 30 24.1 100.36     Mostly Cloudy
11:00 14.4 6.6 59   33 33 24.1 100.49     LegendNANA
12:00 15.8 6.3 53   35 38 24.1 100.54     LegendNANA
13:00 17.0 6.2 49   33 36 24.1 100.56     Mostly Cloudy
14:00 18.0 5.9 45   36 19 24.1 100.58     LegendNANA
15:00 18.3 5.2 42   34 20 24.1 100.59     LegendNANA
16:00 18.5 2.5 34   36 27 24.1 100.61     Mainly Clear
17:00 17.9 0.9 32   34 25 24.1 100.64     LegendNANA
18:00 17.0 2.2 37   34 26 24.1 100.71     LegendNANA
19:00 15.8 1.7 38   34 23 24.1 100.77     Mainly Clear
20:00 14.9 0.3 37   35 21 24.1 100.83     LegendNANA
21:00 13.6 0.4 40   36 14 24.1 100.89     LegendNANA
22:00 12.6 0.5 43   36 12 24.1 100.96     Clear
23:00 12.0 0.7 46   36 16 24.1 100.98     LegendNANA

Notes on Data Quality.

Legend

  • E = Estimated
  • M = Missing
  • NA = Not Available*
  • [empty] = Indicates an unobserved value
Date modified: